Hourly Weather Rudno

Today, 8 May, Saturday

Time Temperature Precipitation Wind Pressure Humidity
00:00 +3°C° 0.3 mm 4 mps 746 mmHg 96%
01:00 +1°C° 0.3 mm 4 mps 747 mmHg 96%
02:00 +1°C° 0.1 mm 5 mps 747 mmHg 96%
03:00 +1°C° 0.1 mm 5 mps 748 mmHg 95%
04:00 +2°C° 0.1 mm 6 mps 748 mmHg 94%
05:00 +2°C° 0 mm 6 mps 749 mmHg 93%
06:00 +2°C° 0 mm 6 mps 749 mmHg 91%
07:00 +2°C° 0 mm 6 mps 750 mmHg 90%
08:00 +3°C° 0.1 mm 6 mps 750 mmHg 85%
09:00 +5°C° 0.1 mm 5 mps 751 mmHg 80%
10:00 +6°C° 0.1 mm 5 mps 751 mmHg 74%
11:00 +7°C° 0.2 mm 5 mps 751 mmHg 70%
12:00 +7°C° 0.2 mm 5 mps 751 mmHg 66%
13:00 +8°C° 0.2 mm 5 mps 751 mmHg 62%
14:00 +8°C° 0.3 mm 6 mps 752 mmHg 63%
15:00 +8°C° 0.3 mm 6 mps 752 mmHg 64%
16:00 +8°C° 0.3 mm 6 mps 752 mmHg 65%
17:00 +7°C° 0 mm 5 mps 752 mmHg 67%
18:00 +7°C° 0 mm 3 mps 752 mmHg 70%
19:00 +6°C° 0 mm 2 mps 753 mmHg 73%
20:00 +5°C° 0 mm 2 mps 753 mmHg 75%
21:00 +6°C° 0 mm 1 mps 753 mmHg 77%
22:00 +5°C° 0 mm 1 mps 754 mmHg 79%
23:00 +5°C° 0 mm 1 mps 754 mmHg 80%

Tomorrow, 9 May, Sunday

Time Temperature Precipitation Wind Pressure Humidity
00:00 +3°C° 0 mm 2 mps 754 mmHg 81%
01:00 +3°C° 0 mm 2 mps 754 mmHg 82%
02:00 +3°C° 0 mm 2 mps 754 mmHg 82%
03:00 +3°C° 0 mm 2 mps 754 mmHg 82%
04:00 +2°C° 0 mm 3 mps 754 mmHg 83%
05:00 +4°C° 0 mm 3 mps 754 mmHg 77%
06:00 +6°C° 0 mm 4 mps 754 mmHg 72%
07:00 +8°C° 0 mm 4 mps 755 mmHg 66%
08:00 +10°C° 0 mm 4 mps 754 mmHg 62%
09:00 +12°C° 0 mm 5 mps 754 mmHg 58%
10:00 +13°C° 0 mm 5 mps 754 mmHg 54%
11:00 +14°C° 0 mm 5 mps 754 mmHg 52%
12:00 +15°C° 0 mm 6 mps 754 mmHg 49%
13:00 +16°C° 0 mm 6 mps 753 mmHg 47%
14:00 +17°C° 0 mm 5 mps 753 mmHg 50%
15:00 +17°C° 0 mm 5 mps 753 mmHg 52%
16:00 +18°C° 0 mm 4 mps 753 mmHg 55%
17:00 +15°C° 0 mm 4 mps 752 mmHg 62%
18:00 +14°C° 0 mm 4 mps 752 mmHg 68%
19:00 +12°C° 0 mm 4 mps 752 mmHg 75%
20:00 +11°C° 0 mm 4 mps 753 mmHg 76%
21:00 +11°C° 0 mm 4 mps 753 mmHg 78%
22:00 +9°C° 0 mm 5 mps 753 mmHg 80%
23:00 +9°C° 0 mm 5 mps 753 mmHg 82%

Day after tomorrow, 10 May, Monday

Time Temperature Precipitation Wind Pressure Humidity
00:00 +8°C° 0 mm 4 mps 753 mmHg 84%
01:00 +7°C° 0 mm 4 mps 753 mmHg 86%
02:00 +7°C° 0 mm 4 mps 752 mmHg 85%
03:00 +7°C° 0 mm 4 mps 752 mmHg 84%
04:00 +7°C° 0 mm 5 mps 752 mmHg 82%
05:00 +8°C° 0 mm 5 mps 752 mmHg 78%
06:00 +10°C° 0 mm 6 mps 752 mmHg 73%
07:00 +13°C° 0 mm 6 mps 752 mmHg 68%
08:00 +14°C° 0 mm 7 mps 752 mmHg 63%
09:00 +16°C° 0 mm 7 mps 752 mmHg 58%
10:00 +18°C° 0 mm 8 mps 752 mmHg 53%
11:00 +20°C° 0 mm 8 mps 752 mmHg 53%
12:00 +21°C° 0 mm 8 mps 751 mmHg 52%
13:00 +22°C° 0 mm 8 mps 751 mmHg 52%
14:00 +22°C° 0 mm 8 mps 751 mmHg 54%
15:00 +22°C° 0 mm 7 mps 751 mmHg 56%
16:00 +22°C° 0 mm 7 mps 751 mmHg 58%
17:00 +20°C° 0 mm 6 mps 751 mmHg 63%
18:00 +17°C° 0 mm 6 mps 751 mmHg 69%
19:00 +16°C° 0 mm 5 mps 751 mmHg 75%
20:00 +15°C° 0 mm 6 mps 751 mmHg 77%
21:00 +14°C° 0 mm 6 mps 751 mmHg 78%
22:00 +14°C° 0 mm 6 mps 751 mmHg 80%
23:00 +13°C° 0 mm 6 mps 751 mmHg 82%

11 May, Tuesday

Time Temperature Precipitation Wind Pressure Humidity
00:00 +12°C° 0 mm 5 mps 751 mmHg 84%
01:00 +12°C° 0 mm 5 mps 751 mmHg 86%
02:00 +10°C° 0 mm 5 mps 751 mmHg 85%
03:00 +10°C° 0 mm 5 mps 750 mmHg 83%
04:00 +10°C° 0 mm 6 mps 750 mmHg 82%
05:00 +11°C° 0 mm 6 mps 750 mmHg 79%
06:00 +12°C° 0 mm 7 mps 750 mmHg 76%
07:00 +14°C° 0 mm 7 mps 750 mmHg 72%
08:00 +16°C° 0 mm 8 mps 750 mmHg 68%
09:00 +18°C° 0 mm 8 mps 750 mmHg 63%
10:00 +21°C° 0 mm 8 mps 750 mmHg 59%
11:00 +21°C° 0 mm 8 mps 750 mmHg 57%
12:00 +22°C° 0 mm 8 mps 750 mmHg 56%
13:00 +23°C° 0 mm 8 mps 750 mmHg 55%
14:00 +23°C° 0 mm 8 mps 750 mmHg 58%
15:00 +22°C° 0 mm 8 mps 749 mmHg 60%
16:00 +22°C° 0 mm 8 mps 749 mmHg 62%
17:00 +20°C° 0 mm 8 mps 749 mmHg 64%
18:00 +18°C° 0 mm 8 mps 749 mmHg 66%
19:00 +17°C° 0 mm 8 mps 749 mmHg 68%
20:00 +16°C° 0 mm 8 mps 749 mmHg 67%
21:00 +15°C° 0 mm 8 mps 749 mmHg 67%
22:00 +14°C° 0 mm 7 mps 749 mmHg 66%
23:00 +14°C° 0 mm 7 mps 749 mmHg 65%

12 May, Wednesday

Time Temperature Precipitation Wind Pressure Humidity
00:00 +12°C° 0 mm 7 mps 748 mmHg 64%
01:00 +11°C° 0 mm 7 mps 748 mmHg 63%
02:00 +11°C° 0 mm 7 mps 748 mmHg 66%
03:00 +11°C° 0 mm 7 mps 748 mmHg 68%
04:00 +10°C° 0 mm 7 mps 748 mmHg 71%
05:00 +11°C° 0 mm 7 mps 748 mmHg 72%
06:00 +12°C° 0 mm 8 mps 748 mmHg 73%
07:00 +15°C° 0 mm 8 mps 747 mmHg 74%
08:00 +16°C° 0 mm 8 mps 747 mmHg 69%
09:00 +18°C° 0 mm 9 mps 747 mmHg 65%
10:00 +19°C° 0 mm 9 mps 747 mmHg 61%
11:00 +21°C° 0 mm 9 mps 747 mmHg 59%
12:00 +22°C° 0 mm 9 mps 747 mmHg 58%
13:00 +22°C° 0 mm 9 mps 747 mmHg 56%
14:00 +22°C° 0 mm 8 mps 746 mmHg 58%
15:00 +21°C° 0 mm 8 mps 746 mmHg 59%
16:00 +21°C° 0 mm 8 mps 746 mmHg 60%
17:00 +20°C° 0 mm 7 mps 746 mmHg 64%
18:00 +17°C° 0 mm 6 mps 746 mmHg 69%
19:00 +16°C° 0 mm 6 mps 746 mmHg 73%
20:00 +15°C° 0 mm 6 mps 746 mmHg 75%
21:00 +14°C° 0 mm 6 mps 746 mmHg 77%
22:00 +12°C° 0 mm 7 mps 746 mmHg 78%
23:00 +11°C° 0 mm 7 mps 746 mmHg 78%

13 May, Thursday

Time Temperature Precipitation Wind Pressure Humidity
00:00 +10°C° 0 mm 7 mps 746 mmHg 78%
01:00 +9°C° 0 mm 7 mps 746 mmHg 78%
02:00 +9°C° 0 mm 7 mps 746 mmHg 78%
03:00 +8°C° 0 mm 7 mps 746 mmHg 78%
04:00 +8°C° 0 mm 7 mps 746 mmHg 78%
05:00 +9°C° 0 mm 7 mps 746 mmHg 77%
06:00 +10°C° 0 mm 8 mps 746 mmHg 75%
07:00 +11°C° 0 mm 8 mps 746 mmHg 74%
08:00 +12°C° 0 mm 8 mps 746 mmHg 69%
09:00 +13°C° 0 mm 8 mps 745 mmHg 64%
10:00 +15°C° 0 mm 9 mps 745 mmHg 59%
11:00 +15°C° 0.1 mm 8 mps 745 mmHg 61%
12:00 +15°C° 0.1 mm 8 mps 745 mmHg 63%
13:00 +15°C° 0.1 mm 7 mps 744 mmHg 64%
14:00 +15°C° 0.1 mm 7 mps 744 mmHg 65%
15:00 +15°C° 0.1 mm 6 mps 744 mmHg 66%
16:00 +15°C° 0.1 mm 5 mps 744 mmHg 67%
17:00 +14°C° 0.1 mm 4 mps 743 mmHg 72%
18:00 +13°C° 0.1 mm 3 mps 743 mmHg 77%
19:00 +13°C° 0.1 mm 2 mps 743 mmHg 83%
20:00 +12°C° 0 mm 2 mps 743 mmHg 85%
21:00 +10°C° 0 mm 2 mps 743 mmHg 87%
22:00 +10°C° 0 mm 2 mps 743 mmHg 89%
23:00 +9°C° 0 mm 2 mps 743 mmHg 90%
Show more